GW0774 Weather Reports


time (UTC)temp
C
wind
direction
speed
KPH
gust
KPH
rain 1hr
cm
rain 24hr
cm
rain mn
cm
humidity
%
barometer
mb
20260509150539 12 288 3.2 14.5 0.00 0.53 0.00 91 999.2
20260509150049 12 227 3.2 14.5 0.00 0.53 0.00 91 999.2
20260509145540 12 264 0.0 9.7 0.00 0.53 0.00 90 999.2
20260509145040 12 263 0.0 9.7 0.00 0.53 0.00 90 999.3
20260509144552 12 263 4.8 9.7 0.00 0.53 0.00 90 999.3
20260509144039 12 263 1.6 6.4 0.00 0.53 0.00 90 999.4
20260509143545 12 263 1.6 6.4 0.00 0.53 0.00 90 999.3
20260509143049 12 263 1.6 6.4 0.00 0.53 0.00 89 999.3
20260509142539 12 263 3.2 6.4 0.00 0.53 0.00 89 999.4
20260509142039 12 263 1.6 6.4 0.00 0.53 0.00 87 999.4
20260509141546 12 263 1.6 6.4 0.00 0.53 0.00 86 999.4
20260509141040 13 263 1.6 22.5 0.00 0.53 0.00 85 999.4
20260509140539 13 0 8.0 22.5 0.00 0.53 0.00 85 999.4
20260509140051 13 279 12.9 27.4 0.00 0.53 0.00 85 999.4
20260509135539 13 278 14.5 27.4 0.00 0.53 0.00 85 999.4
20260509135036 13 307 12.9 27.4 0.00 0.53 0.00 85 999.3
20260509134542 13 260 14.5 27.4 0.00 0.53 0.00 85 999.3
20260509134034 13 272 12.9 25.7 0.00 0.53 0.00 86 999.3
20260509133538 13 304 9.7 20.9 0.00 0.53 0.00 86 999.5
20260509133048 13 298 8.0 20.9 0.00 0.53 0.00 85 999.4
20260509132539 13 290 9.7 20.9 0.00 0.53 0.00 85 999.2
20260509132035 13 256 11.3 29.0 0.00 0.53 0.00 84 999.1
20260509131549 13 256 11.3 29.0 0.00 0.53 0.00 83 999.3
20260509131035 13 269 14.5 30.6 0.00 0.53 0.00 83 999.3
20260509130535 13 288 17.7 32.2 0.00 0.53 0.00 83 999.3
20260509130047 13 277 20.9 33.8 0.00 0.53 0.00 82 999.2
20260509125542 13 259 20.9 33.8 0.00 0.64 0.00 82 999.3
20260509125038 13 245 12.9 29.0 0.00 0.64 0.00 84 999.4
20260509124545 13 314 9.7 25.7 0.00 0.64 0.00 83 999.3
20260509124038 13 256 11.3 27.4 0.00 0.64 0.00 83 999.4
20260509123535 13 277 14.5 29.0 0.00 0.64 0.00 83 999.4
20260509123050 13 266 14.5 29.0 0.00 0.64 0.00 82 999.3
20260509122536 13 331 12.9 25.7 0.00 0.64 0.00 82 999.3
20260509122036 13 254 14.5 22.5 0.00 0.64 0.00 82 999.2
20260509121547 13 281 12.9 22.5 0.00 0.64 0.00 82 999.2
20260509121036 13 272 11.3 22.5 0.00 0.64 0.00 82 999.2
20260509120536 13 246 9.7 22.5 0.00 0.64 0.00 82 999.4
20260509120058 13 283 9.7 27.4 0.00 0.64 0.00 81 999.5
20260509115535 13 253 12.9 27.4 0.00 0.99 0.64 81 999.4
20260509115035 13 265 11.3 27.4 0.00 0.99 0.64 81 999.5
20260509114543 13 250 12.9 25.7 0.00 0.99 0.64 81 999.6
20260509114037 13 281 8.0 29.0 0.00 0.99 0.64 81 999.6
20260509113534 13 300 12.9 29.0 0.00 0.99 0.64 81 999.5
20260509113053 13 281 11.3 29.0 0.00 0.99 0.64 81 999.6
20260509112538 13 294 11.3 22.5 0.00 0.99 0.64 81 999.6
20260509112036 13 339 12.9 20.9 0.00 0.99 0.64 80 999.6
20260509111542 13 293 11.3 20.9 0.00 0.99 0.64 80 999.6
20260509111036 13 242 12.9 20.9 0.00 0.99 0.64 81 999.6
20260509110538 13 259 9.7 20.9 0.00 0.99 0.64 81 999.6
20260509110053 13 252 9.7 22.5 0.00 0.99 0.64 81 999.7
20260509105535 13 275 12.9 27.4 0.00 1.02 0.64 81 999.8
20260509105035 13 291 11.3 27.4 0.00 1.02 0.64 81 999.7
20260509104547 13 269 9.7 24.1 0.00 1.02 0.64 82 999.8
20260509104035 13 250 11.3 29.0 0.00 1.02 0.64 81 999.7
20260509103538 13 254 12.9 29.0 0.00 1.02 0.64 81 999.6
20260509103048 13 294 11.3 29.0 0.00 1.02 0.64 81 999.6
20260509102538 13 265 9.7 24.1 0.00 1.02 0.64 81 999.7
20260509102040 13 277 12.9 27.4 0.00 1.02 0.64 81 999.7
20260509101553 13 294 14.5 29.0 0.00 1.02 0.64 80 999.6
20260509101039 13 259 16.1 29.0 0.00 1.02 0.64 81 999.7
20260509100540 13 279 11.3 22.5 0.00 1.02 0.64 81 999.7
20260509100045 13 304 9.7 20.9 0.00 1.02 0.64 81 999.6
20260509095540 13 265 8.0 24.1 0.00 1.12 0.64 80 999.7
20260509095039 13 264 9.7 24.1 0.00 1.12 0.64 80 999.7
20260509094548 13 290 12.9 22.5 0.00 1.12 0.64 79 999.7
20260509094039 13 271 11.3 25.7 0.00 1.12 0.64 80 999.8
20260509093539 13 254 11.3 25.7 0.00 1.12 0.64 81 999.8
20260509093053 13 269 12.9 25.7 0.00 1.12 0.64 81 999.6
20260509092538 13 243 11.3 22.5 0.00 1.12 0.64 82 999.5
20260509092043 13 268 8.0 22.5 0.00 1.12 0.64 82 999.5
20260509091602 13 290 8.0 27.4 0.00 1.12 0.64 82 999.6
20260509091039 13 250 11.3 27.4 0.00 1.12 0.64 82 999.5
20260509090540 13 242 8.0 20.9 0.00 1.12 0.64 83 999.4
20260509090047 13 260 11.3 22.5 0.00 1.12 0.64 82 999.3
20260509085538 13 256 11.3 22.5 0.00 1.12 0.64 82 999.4
20260509085042 13 257 11.3 24.1 0.00 1.12 0.64 82 999.4
20260509084545 13 250 12.9 24.1 0.00 1.12 0.64 81 999.5
20260509084039 13 249 14.5 22.5 0.00 1.12 0.64 81 999.5
20260509083538 13 241 9.7 24.1 0.00 1.12 0.64 81 999.4
20260509083044 13 254 9.7 25.7 0.00 1.12 0.64 81 999.2
20260509082539 13 281 12.9 25.7 0.00 1.12 0.64 81 999.1
20260509082042 13 284 12.9 29.0 0.00 1.12 0.64 81 999.1
20260509081551 13 277 16.1 29.0 0.00 1.12 0.64 81 999.2
20260509081039 13 277 16.1 27.4 0.00 1.12 0.64 81 999.1
20260509080538 13 284 17.7 27.4 0.00 1.12 0.64 81 999.0
20260509080057 13 290 16.1 25.7 0.00 1.12 0.64 81 999.1
20260509075542 13 323 12.9 22.5 0.00 1.12 0.64 82 999.1
20260509075042 13 298 14.5 27.4 0.00 1.12 0.64 81 999.3
20260509074552 13 289 17.7 27.4 0.00 1.12 0.64 81 999.4
20260509074040 13 288 17.7 27.4 0.00 1.12 0.64 81 999.3
20260509073539 13 290 17.7 27.4 0.00 1.12 0.64 82 999.2
20260509073122 13 298 11.3 20.9 0.00 1.12 0.64 83 999.3
20260509072542 13 251 9.7 17.7 0.00 1.12 0.64 83 999.2
20260509072038 13 249 8.0 17.7 0.00 1.12 0.64 83 999.3
20260509071549 13 263 8.0 17.7 0.00 1.12 0.64 82 999.4
20260509071039 13 240 9.7 17.7 0.00 1.12 0.64 83 999.4
20260509070541 13 264 8.0 22.5 0.00 1.12 0.64 83 999.4
20260509070055 13 267 9.7 22.5 0.00 1.12 0.64 83 999.5
20260509065538 13 252 9.7 20.9 0.00 1.12 0.64 83 999.5
20260509065038 13 281 11.3 20.9 0.00 1.12 0.64 84 999.5
20260509064548 13 252 6.4 20.9 0.00 1.12 0.64 83 999.5
20260509064044 13 297 8.0 19.3 0.00 1.12 0.64 83 999.6
20260509063539 13 252 8.0 20.9 0.00 1.12 0.64 82 999.6
20260509063059 13 252 11.3 20.9 0.00 1.12 0.64 82 999.5
20260509062539 13 300 9.7 32.2 0.00 1.12 0.64 81 999.5
20260509062038 14 253 11.3 32.2 0.00 1.12 0.64 79 999.6
20260509061556 14 265 12.9 29.0 0.00 1.12 0.64 80 999.5
20260509061039 14 299 14.5 29.0 0.00 1.12 0.64 81 999.5
20260509060539 14 251 11.3 24.1 0.00 1.12 0.64 81 999.6
20260509055538 14 245 14.5 27.4 0.00 1.12 0.64 82 999.6
20260509055041 15 242 12.9 30.6 0.00 1.12 0.64 83 999.7
20260509054607 15 240 16.1 30.6 0.00 1.12 0.64 83 999.6
20260509054038 15 263 14.5 27.4 0.00 1.12 0.64 84 999.6
20260509053540 15 296 16.1 27.4 0.00 1.12 0.64 84 999.5
20260509053049 15 269 12.9 25.7 0.00 1.12 0.64 85 999.5
20260509052538 15 262 12.9 25.7 0.00 1.12 0.64 85 999.4
20260509052039 15 250 14.5 27.4 0.00 1.12 0.64 85 999.3
20260509051548 15 245 12.9 27.4 0.00 1.12 0.64 86 999.3
20260509051041 15 252 14.5 24.1 0.00 1.12 0.64 86 999.2
20260509050538 15 263 12.9 24.1 0.00 1.12 0.64 87 999.3
20260509050044 15 286 12.9 25.7 0.00 1.12 0.64 88 999.2
20260509045539 15 251 12.9 27.4 0.00 1.12 0.64 87 999.1
20260509045039 15 261 14.5 29.0 0.00 1.12 0.64 87 999.1
20260509044550 15 253 14.5 29.0 0.00 1.12 0.64 87 999.1
20260509044038 15 269 12.9 25.7 0.00 1.12 0.64 88 999.1
20260509043539 15 258 12.9 25.7 0.00 1.12 0.64 88 999.2
20260509043053 15 238 12.9 30.6 0.00 1.12 0.64 88 999.3
20260509042541 15 248 16.1 30.6 0.00 1.12 0.64 87 999.1
20260509042038 15 249 16.1 30.6 0.00 1.12 0.64 87 999.2
20260509041551 15 267 12.9 29.0 0.00 1.12 0.64 86 999.2
20260509041041 15 273 12.9 29.0 0.00 1.12 0.64 86 999.2
20260509040539 15 274 14.5 29.0 0.00 1.12 0.64 86 999.4
20260509040121 16 316 12.9 29.0 0.00 1.12 0.64 88 999.3
20260509035539 15 275 14.5 29.0 0.00 1.12 0.64 87 999.5
20260509035039 15 301 16.1 32.2 0.00 1.12 0.64 86 999.5
20260509034555 15 242 12.9 32.2 0.00 1.12 0.64 86 999.6
20260509034038 15 259 17.7 32.2 0.00 1.12 0.64 85 999.4
20260509033539 15 238 17.7 37.0 0.00 1.12 0.64 86 999.3
20260509033049 15 281 19.3 37.0 0.00 1.12 0.64 86 999.3
20260509032540 16 278 14.5 41.8 0.00 1.12 0.64 87 999.2
20260509032045 16 241 17.7 41.8 0.00 1.12 0.64 86 999.2
20260509031549 16 275 11.3 38.6 0.00 1.12 0.64 87 999.3
20260509031038 16 273 17.7 38.6 0.00 1.12 0.64 86 999.2
20260509030540 16 250 20.9 38.6 0.00 1.12 0.64 84 999.1
20260509030050 16 218 17.7 35.4 0.00 1.12 0.64 85 998.9
20260509025544 16 294 22.5 40.2 0.00 1.12 0.64 83 998.8
20260509025044 16 256 14.5 40.2 0.00 1.12 0.64 85 998.7
20260509024549 16 288 20.9 40.2 0.00 1.12 0.64 85 998.6
20260509024039 16 277 17.7 38.6 0.00 1.12 0.64 86 998.6
20260509023538 16 286 22.5 38.6 0.00 1.12 0.64 86 998.6
20260509023047 16 275 22.5 41.8 0.15 1.12 0.64 86 998.5
20260509022541 16 279 24.1 41.8 0.46 1.12 0.64 86 998.5
20260509022041 16 280 20.9 33.8 0.48 1.12 0.64 89 998.5
20260509021547 16 270 19.3 37.0 0.48 1.12 0.64 89 998.5
20260509021040 16 276 16.1 38.6 0.48 1.12 0.64 89 998.7
20260509020539 16 269 20.9 38.6 0.48 1.12 0.64 88 998.6
20260509020049 16 264 22.5 37.0 0.48 1.12 0.64 90 998.6
20260509015541 16 265 20.9 37.0 0.48 1.12 0.64 90 998.6
20260509015040 16 296 20.9 37.0 0.48 1.12 0.64 92 998.6
20260509014548 15 315 17.7 37.0 0.48 1.12 0.64 92 998.7
20260509014041 15 281 19.3 30.6 0.48 1.12 0.64 92 998.8
20260509013538 15 267 17.7 27.4 0.46 1.12 0.64 91 998.8
20260509013050 16 250 16.1 32.2 0.28 0.91 0.43 89 999.0
20260509012539 16 248 16.1 32.2 0.00 0.64 0.15 87 998.9
20260509012040 16 298 22.5 33.8 0.00 0.64 0.15 85 998.9
20260509011603 16 284 20.9 33.8 0.00 0.64 0.15 84 999.0
20260509011043 16 242 16.1 33.8 0.00 0.64 0.15 87 999.1
20260509010539 16 266 20.9 33.8 0.00 0.64 0.15 85 999.3
20260509010051 16 340 14.5 30.6 0.00 0.64 0.15 85 999.3
20260509005539 16 300 20.9 33.8 0.00 0.64 0.15 84 999.4
20260509005038 16 298 17.7 33.8 0.00 0.64 0.15 85 999.5
20260509004605 16 272 12.9 32.2 0.00 0.64 0.15 85 999.7
20260509004040 16 276 14.5 32.2 0.00 0.64 0.15 86 999.7
20260509003539 16 300 17.7 32.2 0.00 0.64 0.15 85 999.9
20260509003053 16 269 19.3 33.8 0.00 0.64 0.15 85 1000.2
20260509002538 16 312 20.9 33.8 0.00 0.64 0.15 86 1000.1
20260509002040 16 269 17.7 32.2 0.00 0.64 0.15 87 1000.1
20260509001548 16 294 16.1 32.2 0.00 0.61 0.13 89 1000.1
20260509001040 15 312 20.9 32.2 0.00 0.61 0.13 89 1000.1
20260509000539 15 321 16.1 32.2 0.00 0.61 0.13 92 1000.0
20260509000050 15 294 16.1 32.2 0.00 0.61 0.13 93 1000.0
20260508235542 15 281 19.3 38.6 0.00 0.61 0.13 92 999.9
20260508235041 15 306 20.9 38.6 0.00 0.61 0.13 91 999.9
20260508234549 15 261 19.3 51.5 0.00 0.61 0.13 88 999.8
20260508234040 16 292 27.4 51.5 0.00 0.61 0.13 83 999.6
20260508233539 16 292 22.5 43.5 0.00 0.61 0.13 78 999.5
20260508233050 17 338 16.1 32.2 0.00 0.61 0.13 79 999.4
20260508232546 16 274 16.1 32.2 0.00 0.61 0.13 80 999.5
20260508232039 16 300 12.9 30.6 0.00 0.61 0.13 80 999.7
20260508231554 16 306 16.1 30.6 0.00 0.61 0.13 80 999.8
20260508231039 16 277 14.5 29.0 0.00 0.61 0.13 78 999.8
20260508230539 16 257 11.3 22.5 0.00 0.61 0.13 77 999.6
20260508230046 17 279 9.7 22.5 0.00 0.61 0.13 78 999.6
20260508225539 17 317 4.8 14.5 0.00 0.61 0.13 78 999.7
20260508225040 17 249 3.2 17.7 0.00 0.61 0.13 78 999.6
20260508224545 17 274 6.4 17.7 0.00 0.61 0.13 78 999.8
20260508224039 17 289 9.7 17.7 0.00 0.61 0.13 77 1000.1
20260508223539 17 271 9.7 16.1 0.00 0.61 0.13 79 1000.1
20260508223050 17 226 6.4 17.7 0.00 0.61 0.13 79 1000.3
20260508222540 17 273 6.4 17.7 0.00 0.61 0.13 78 1000.1
20260508222039 17 259 6.4 14.5 0.00 0.61 0.13 78 1000.2
20260508221551 17 42 8.0 14.5 0.00 0.61 0.13 78 1000.2
20260508221041 18 279 4.8 11.3 0.00 0.61 0.13 79 1000.5
20260508220539 17 51 4.8 11.3 0.00 0.61 0.13 79 1000.5
20260508220054 17 257 3.2 12.9 0.00 0.61 0.13 80 1000.5
20260508215539 17 240 6.4 12.9 0.00 0.61 0.13 79 1000.5
20260508215039 17 289 4.8 14.5 0.00 0.61 0.13 78 1000.6
20260508214554 17 18 4.8 14.5 0.00 0.61 0.13 80 1000.5
20260508214038 17 260 0.0 14.5 0.00 0.61 0.13 81 1000.4
20260508213539 17 282 3.2 14.5 0.00 0.61 0.13 80 1000.3
20260508213045 16 292 3.2 12.9 0.00 0.61 0.13 81 1000.2
20260508212538 16 320 3.2 16.1 0.00 0.61 0.13 81 1000.1
20260508212035 16 201 3.2 16.1 0.00 0.61 0.13 82 1000.1
20260508211549 16 0 4.8 16.1 0.00 0.61 0.13 82 1000.0
20260508211039 16 265 0.0 16.1 0.00 0.61 0.13 83 1000.0
20260508210539 16 300 4.8 16.1 0.00 0.61 0.13 83 1000.0
20260508210050 16 269 3.2 12.9 0.00 0.61 0.13 84 999.9
20260508205538 15 234 4.8 12.9 0.00 0.61 0.13 85 999.8
20260508205038 15 252 1.6 12.9 0.00 0.61 0.13 86 999.7
20260508204549 15 279 4.8 12.9 0.00 0.61 0.13 86 999.7
20260508204042 15 219 4.8 9.7 0.00 0.61 0.13 86 999.7
20260508203538 15 277 1.6 9.7 0.00 0.61 0.13 87 999.8
20260508203051 15 279 3.2 11.3 0.00 0.61 0.13 86 999.8
20260508202540 15 251 3.2 14.5 0.00 0.61 0.13 86 999.9
20260508202039 15 273 1.6 14.5 0.00 0.61 0.13 87 1000.0
20260508201545 15 269 3.2 11.3 0.00 0.61 0.13 87 1000.0
20260508201042 15 245 4.8 14.5 0.00 0.61 0.13 88 1000.1
20260508200541 14 246 3.2 14.5 0.00 0.61 0.13 89 1000.0
20260508200046 14 100 3.2 12.9 0.00 0.61 0.13 90 1000.1
20260508195538 14 224 1.6 8.0 0.00 0.61 0.13 90 1000.0
20260508195038 13 300 1.6 12.9 0.00 0.61 0.13 90 1000.0
20260508194555 13 271 3.2 12.9 0.00 0.61 0.13 90 999.9
20260508194036 13 115 0.0 6.4 0.00 0.61 0.13 90 999.8
20260508193537 13 0 1.6 8.0 0.00 0.61 0.13 90 999.9
20260508193103 13 209 0.0 8.0 0.00 0.61 0.13 89 1000.0
20260508192537 13 106 1.6 8.0 0.00 0.61 0.13 90 999.9
20260508192037 13 263 1.6 9.7 0.00 0.61 0.13 90 1000.0
20260508191546 13 263 1.6 9.7 0.00 0.61 0.13 90 1000.0
20260508191036 13 111 1.6 8.0 0.00 0.61 0.13 90 1000.1
20260508190538 13 90 1.6 12.9 0.00 0.61 0.13 91 1000.1
20260508190046 13 284 3.2 12.9 0.00 0.61 0.13 92 1000.1
20260508185537 13 329 3.2 12.9 0.00 0.61 0.13 93 1000.3
20260508185036 13 240 0.0 6.4 0.00 0.61 0.13 93 1000.3
20260508184559 13 240 1.6 6.4 0.00 0.61 0.13 93 1000.3
20260508184037 13 0 0.0 4.8 0.00 0.61 0.13 93 1000.6
20260508183536 13 0 0.0 3.2 0.00 0.61 0.13 93 1000.5
20260508183048 13 0 0.0 6.4 0.00 0.61 0.13 93 1000.5
20260508182536 13 240 1.6 6.4 0.00 0.61 0.13 93 1000.6
20260508182036 13 240 0.0 4.8 0.00 0.61 0.13 93 1000.5
20260508181549 13 240 0.0 3.2 0.00 0.61 0.13 93 1000.4
20260508181039 13 240 0.0 3.2 0.00 0.61 0.13 93 1000.4
20260508180536 13 0 0.0 3.2 0.00 0.61 0.13 94 1000.3
20260508180050 13 174 0.0 4.8 0.00 0.61 0.13 94 1000.3
20260508175535 13 97 0.0 4.8 0.00 0.61 0.13 94 1000.4
20260508175039 13 78 1.6 4.8 0.00 0.61 0.13 94 1000.4
20260508174545 13 0 0.0 4.8 0.00 0.58 0.10 94 1000.5
20260508174036 13 219 0.0 4.8 0.00 0.58 0.10 94 1000.6
20260508173537 13 0 0.0 4.8 0.00 0.58 0.10 94 1000.6
20260508173044 12 0 1.6 4.8 0.00 0.58 0.10 95 1000.6
20260508172536 12 0 0.0 4.8 0.00 0.58 0.10 95 1000.6
20260508172036 12 0 0.0 0.0 0.00 0.58 0.10 94 1000.6
20260508171544 12 0 0.0 0.0 0.00 0.58 0.10 94 1000.5
20260508171039 12 0 0.0 0.0 0.00 0.58 0.10 94 1000.5
20260508170536 12 0 0.0 0.0 0.00 0.58 0.10 94 1000.5
20260508170048 12 0 0.0 0.0 0.00 0.58 0.10 94 1000.6
20260508165535 12 0 0.0 0.0 0.00 0.58 0.10 94 1000.6
20260508165036 12 0 0.0 0.0 0.00 0.58 0.10 94 1000.5
20260508164547 12 0 0.0 0.0 0.00 0.58 0.10 94 1000.5
20260508164040 12 0 0.0 0.0 0.00 0.58 0.10 94 1000.6
20260508163538 11 0 0.0 0.0 0.00 0.58 0.10 94 1000.6
20260508163049 12 0 0.0 0.0 0.00 0.58 0.10 94 1000.6
20260508162538 12 0 0.0 0.0 0.00 0.58 0.10 94 1000.5
20260508162039 11 0 0.0 0.0 0.00 0.58 0.10 93 1000.4
20260508161546 11 0 0.0 0.0 0.00 0.58 0.10 93 1000.5
20260508161038 11 0 0.0 0.0 0.00 0.58 0.10 93 1000.4
20260508160543 12 0 0.0 0.0 0.00 0.58 0.10 93 1000.4
20260508160105 12 0 0.0 0.0 0.00 0.58 0.10 93 1000.5
20260508155541 12 0 0.0 0.0 0.00 0.58 0.10 92 1000.6
20260508155038 12 0 0.0 0.0 0.00 0.58 0.10 93 1000.7
20260508154553 12 0 0.0 0.0 0.00 0.58 0.10 93 1000.6
20260508154038 12 0 0.0 1.6 0.00 0.58 0.10 93 1000.8
20260508153539 13 0 0.0 1.6 0.00 0.58 0.10 93 1000.8
20260508153048 13 0 0.0 1.6 0.00 0.58 0.10 93 1000.9
20260508152538 13 0 0.0 1.6 0.00 0.58 0.10 93 1000.9
20260508152038 13 0 0.0 1.6 0.00 0.58 0.10 92 1001.1
20260508151549 13 0 0.0 0.0 0.00 0.58 0.10 92 1001.1
20260508151039 13 0 0.0 0.0 0.00 0.58 0.10 92 1001.1